date,time,DOY,Ta_1_1_1,RH_1_1_1,LWin_1_1_1,LWout_1_1_1,SWin_1_1_1,SWout_1_1_1,PPFD_1_1_1,SWC_1_1_1,Ts_1_1_1
[yyyy-mm-dd],[HH:MM],[ddd.ddd],[K],[%],[W+1m-2],[W+1m-2],[W+1m-2],[W+1m-2],[µmol+1m-2s-1],[m+3m-3],[K]
2013-01-14,00:30,14.020,258.08866666666665,79.228666666666655,-1.8279999999999998,-9999.0,4.93333333333333401E-002,-0.62733333333333330,2.66666666666666614E-003,-9999.0,279.90999999999991
2013-01-14,01:00,14.041,258.31833333333338,80.099333333333320,-1.7929999999999999,-9999.0,-0.10833333333333335,-0.63033333333333330,8.00000000000000017E-003,-9999.0,279.90999999999991
2013-01-14,01:30,14.062,258.21400000000000,79.409666666666666,-1.9776666666666667,-9999.0,-8.73333333333333878E-002,-0.90066666666666662,1.60000000000000073E-002,-9999.0,279.90999999999991
2013-01-14,02:00,14.083,258.12233333333336,78.271999999999991,-2.6466666666666665,-9999.0,6.63333333333333275E-002,-1.5610000000000002,9.33333333333333237E-003,-9999.0,279.90999999999991
2013-01-14,02:30,14.104,257.84033333333338,79.113000000000000,-3.9290000000000003,-9999.0,0.44800000000000012,-2.6486666666666667,6.66666666666666796E-003,-9999.0,279.90999999999991
2013-01-14,03:00,14.124,257.63200000000001,80.712666666666664,-3.4626666666666663,-9999.0,0.30100000000000005,-2.0746666666666660,6.00000000000000099E-003,-9999.0,279.90999999999991
2013-01-14,03:30,14.145,257.64666666666665,81.350333333333310,-3.0730000000000000,-9999.0,0.16866666666666671,-1.6869999999999998,1.06666666666666680E-002,-9999.0,279.90999999999991
2013-01-14,04:00,14.166,257.60866666666675,82.022333333333350,-3.6443333333333330,-9999.0,0.22933333333333336,-2.1473333333333340,1.63333333333333351E-002,-9999.0,279.90999999999991
2013-01-14,04:30,14.187,257.28500000000008,82.435000000000002,-4.3013333333333330,-9999.0,0.35833333333333334,-2.9863333333333335,1.09999999999999994E-002,-9999.0,279.90999999999991
2013-01-14,05:00,14.208,256.93566666666663,82.103333333333325,-2.9409999999999998,-9999.0,0.13900000000000004,-1.7546666666666666,1.00000000000000019E-002,-9999.0,279.90999999999991
2013-01-14,05:30,14.229,256.78533333333337,81.649333333333331,-2.2243333333333335,-9999.0,-0.10000000000000001,-1.3343333333333336,2.66666666666666658E-003,-9999.0,279.90999999999991
2013-01-14,06:00,14.249,256.58133333333342,81.262333333333331,-1.9763333333333331,-9999.0,-5.66666666666666916E-002,-1.2096666666666669,4.33333333333333313E-003,-9999.0,279.90999999999991
2013-01-14,06:30,14.270,256.51666666666665,80.753333333333330,-1.7530000000000001,-9999.0,-0.11666666666666667,-1.0080000000000000,1.03333333333333350E-002,-9999.0,279.90999999999991
2013-01-14,07:00,14.291,256.65166666666670,80.705333333333343,-1.8256666666666670,-9999.0,-0.10000000000000002,-0.96433333333333315,8.33333333333333322E-003,-9999.0,279.90999999999991
2013-01-14,07:30,14.312,256.57566666666679,80.481333333333353,-4.3270000000000008,-9999.0,0.51766666666666661,-2.8236666666666670,1.2423333333333335,-9999.0,279.90999999999991
2013-01-14,08:00,14.333,256.44766666666663,80.570666666666696,-4.3333333333333330,-9999.0,3.0880000000000001,10.278666666666664,22.200333333333333,-9999.0,279.90999999999991
2013-01-14,08:30,14.354,256.49166666666673,80.286333333333317,-4.5763333333333351,-9999.0,5.5933333333333337,30.471000000000004,68.989000000000004,-9999.0,279.90999999999991
2013-01-14,09:00,14.374,256.98733333333331,79.292999999999978,-4.9016666666666673,-9999.0,17.774333333333335,126.55400000000000,195.90399999999997,-9999.0,279.90999999999991
2013-01-14,09:30,14.395,257.97700000000009,75.941999999999993,-5.4950000000000010,-9999.0,31.854333333333340,239.55233333333334,351.47433333333328,-9999.0,279.90999999999991
2013-01-14,10:00,14.416,258.43633333333332,71.416333333333341,-4.7113333333333340,-9999.0,40.642666666666670,300.67533333333330,461.75700000000001,-9999.0,279.90999999999991
2013-01-14,10:30,14.437,259.11633333333344,67.053666666666658,-4.4186666666666667,-9999.0,47.819666666666670,334.26666666666665,545.22466666666662,-9999.0,279.90999999999991
2013-01-14,11:00,14.458,259.93433333333331,64.442999999999998,-4.8173333333333330,-9999.0,53.201333333333338,354.98066666666665,624.44799999999998,-9999.0,279.90999999999991
2013-01-14,11:30,14.479,260.67633333333328,62.357666666666660,-4.7420000000000009,-9999.0,56.712333333333326,373.97966666666673,682.23000000000002,-9999.0,279.90999999999991
2013-01-14,12:00,14.499,260.71166666666670,62.120666666666672,-4.2000000000000002,-9999.0,59.726333333333351,389.14100000000002,714.47600000000000,-9999.0,279.90999999999991
2013-01-14,12:30,14.520,260.90300000000008,61.810333333333340,-3.8326666666666660,-9999.0,59.913000000000004,392.00799999999992,720.38733333333346,-9999.0,279.90999999999991
2013-01-14,13:00,14.541,261.22000000000008,61.902666666666669,-4.1610000000000005,-9999.0,57.751666666666672,380.34100000000012,700.67633333333345,-9999.0,279.90999999999991
2013-01-14,13:30,14.562,261.27366666666671,63.076999999999998,-3.9830000000000010,-9999.0,53.573000000000000,359.52033333333333,658.26666666666677,-9999.0,279.90999999999991
2013-01-14,14:00,14.583,261.54633333333334,63.697333333333326,-4.2156666666666665,-9999.0,44.077666666666666,287.18299999999999,525.98000000000002,-9999.0,279.90999999999991
2013-01-14,14:30,14.604,261.01133333333343,67.390333333333331,-2.6639999999999997,-9999.0,23.746666666666673,133.41466666666665,261.53199999999998,-9999.0,279.90999999999991
2013-01-14,15:00,14.624,260.50400000000008,70.042333333333318,-1.8043333333333333,-9999.0,15.411333333333337,83.294666666666657,164.43733333333336,-9999.0,279.90999999999991
2013-01-14,15:30,14.645,260.17666666666668,71.243666666666670,-2.2533333333333330,-9999.0,12.827333333333332,69.667999999999992,135.44766666666666,-9999.0,279.90999999999991
2013-01-14,16:00,14.666,259.98866666666675,71.779666666666643,-2.7406666666666668,-9999.0,7.4790000000000001,39.778333333333329,79.661666666666662,-9999.0,279.90999999999991
2013-01-14,16:30,14.687,259.81266666666664,71.366333333333344,-2.8466666666666662,-9999.0,2.6136666666666670,13.165333333333335,29.698999999999998,-9999.0,279.90999999999991
2013-01-14,17:00,14.708,259.45233333333334,71.939666666666682,-2.4350000000000005,-9999.0,0.21133333333333340,0.63899999999999979,3.8556666666666657,-9999.0,279.90999999999991
2013-01-14,17:30,14.729,259.27366666666671,70.915333333333322,-2.6560000000000001,-9999.0,-5.43333333333333585E-002,-1.2356666666666665,5.90000000000000246E-002,-9999.0,279.90999999999991
2013-01-14,18:00,14.749,259.14166666666671,69.116666666666646,-2.3423333333333334,-9999.0,-5.23333333333333567E-002,-0.97433333333333350,1.40000000000000038E-002,-9999.0,279.90999999999991
2013-01-14,18:30,14.770,259.07900000000001,71.447666666666663,-2.3826666666666672,-9999.0,-0.13766666666666669,-0.87500000000000011,8.99999999999999932E-003,-9999.0,279.90999999999991
2013-01-14,19:00,14.791,258.91433333333333,68.443666666666658,-2.3726666666666665,-9999.0,-9.43333333333333801E-002,-1.1013333333333333,1.40000000000000003E-002,-9999.0,279.90999999999991
2013-01-14,19:30,14.812,258.78633333333340,66.786333333333346,-2.1716666666666669,-9999.0,-6.60000000000000309E-002,-0.89899999999999991,1.03333333333333350E-002,-9999.0,279.90999999999991
2013-01-14,20:00,14.833,258.83300000000003,69.058999999999997,-2.2626666666666675,-9999.0,-7.83333333333333381E-002,-0.88933333333333353,4.66666666666666619E-003,-9999.0,279.90999999999991
2013-01-14,20:30,14.854,258.76800000000009,71.315000000000012,-2.3489999999999998,-9999.0,-0.14233333333333331,-0.99800000000000011,5.66666666666666707E-003,-9999.0,279.90999999999991
2013-01-14,21:00,14.874,258.54200000000009,72.650333333333307,-3.0540000000000007,-9999.0,2.39999999999999901E-002,-1.7210000000000001,5.33333333333333229E-003,-9999.0,279.90999999999991
2013-01-14,21:30,14.895,258.10800000000000,74.364333333333306,-4.6713333333333331,-9999.0,0.37566666666666670,-3.1726666666666663,1.36666666666666672E-002,-9999.0,279.90999999999991
2013-01-14,22:00,14.916,257.61666666666667,76.248666666666665,-5.3176666666666677,-9999.0,0.66966666666666652,-3.7193333333333327,3.66666666666666660E-003,-9999.0,279.90999999999991
2013-01-14,22:30,14.937,257.16566666666665,78.128666666666675,-5.5513333333333339,-9999.0,0.65866666666666684,-3.7770000000000006,8.00000000000000190E-003,-9999.0,279.90999999999991
2013-01-14,23:00,14.958,256.76233333333334,79.812333333333328,-5.0130000000000017,-9999.0,0.63933333333333342,-3.3973333333333340,1.13333333333333324E-002,-9999.0,279.90999999999991
2013-01-14,23:30,14.979,256.53266666666673,80.391666666666666,-4.9803333333333333,-9999.0,0.67866666666666664,-3.3513333333333342,5.33333333333333316E-003,-9999.0,279.90999999999991
2013-01-15,00:00,15.000,256.40166666666670,80.050666666666672,-5.0086666666666675,-9999.0,0.67566666666666675,-3.3313333333333328,5.66666666666666621E-003,-9999.0,279.90999999999991
